Home > Weather > Saint John > Past weeks

Flag for Canada Past Weather in Saint John, New Brunswick, Canada — Yesterday and Last 2 Weeks

Now
66 °F

Fog.


Feels Like: 66 °F
Forecast: 62 / 74 °F
Wind: 3 mph from South

Location: Saint John

Current Time: Jul 29, 2016 at 1:06:45 PM

Latest Report: Jul 29, 2016 at 12:00 PM


Visibility: 4 mi

Pressure: 29.93 "Hg

Humidity: 94%

Dew Point: 64 °F

Location of Saint JohnLocation

Past Weather in Saint John — Graph

°F

Saint John Temperature Yesterday

Maximum temperature yesterday: 77 °F (at 2:00 PM)
Minimum temperature yesterday: 59 °F (at 3:00 AM)
Average temperature yesterday: 67 °F

High & Low Weather Summary for the Past Weeks

 TemperatureHumidityPressure
High86 °F (Jul 24, 4:00 PM)100% (Jul 15, 12:00 AM)30.17 "Hg (Jul 15, 12:00 AM)
Low48 °F (Jul 21, 6:00 AM)38% (Jul 19, 5:00 PM)29.65 "Hg (Jul 22, 7:00 PM)
Average66 °F85%29.88 "Hg
* Reported Jul 14 12:00 PM — Jul 29 12:00 PM, Saint John, Weather by CustomWeather, © 2016

Note: Actual official high and low records may vary slightly from our data, if they occured in-between our weather recording intervals... More about our weather records

Advertising

Saint John Weather History for the Previous 24 Hours

Scroll right to see more
 ConditionsComfort  
Time TempWeatherWind HumidityBarometerVisibility
12:00 PM
Fri, Jul 29
66 °FFog.3 mph94%29.93 "Hg4 mi
11:00 AM64 °FFog.5 mph100%29.92 "Hg3 mi
10:00 AM64 °FFog.5 mph100%29.92 "Hg1 mi
9:00 AM63 °FFog.3 mph100%29.91 "Hg1 mi
8:00 AM63 °FFog.3 mph100%29.92 "Hg1 mi
7:00 AM61 °FFog.5 mph100%29.91 "Hg0 mi
6:45 AM61 °FFog.2 mph100%29.91 "Hg0 mi
6:00 AM61 °FFog.5 mph100%29.90 "Hg1 mi
5:51 AM61 °FFog.6 mph100%29.90 "Hg0 mi
5:00 AM61 °FFog.6 mph100%29.90 "Hg1 mi
4:00 AM61 °FFog.3 mph100%29.90 "Hg0 mi
3:00 AM61 °FFog.3 mph100%29.90 "Hg0 mi
2:00 AM61 °FFog.7 mph100%29.91 "Hg1 mi
1:00 AM63 °FFog.6 mph100%29.90 "Hg1 mi
12:00 AM63 °FFog.7 mph94%29.91 "Hg3 mi
11:00 PM
Thu, Jul 28
64 °FFog.2 mph94%29.93 "Hg3 mi
10:00 PM64 °FOvercast.2 mph94%29.92 "Hg15 mi
9:00 PM66 °FMostly cloudy.5 mph88%29.91 "Hg15 mi
8:00 PM68 °FBroken clouds.3 mph78%29.92 "Hg15 mi
7:00 PM68 °FBroken clouds.8 mph78%29.90 "Hg15 mi
6:00 PM70 °FBroken clouds.12 mph78%29.90 "Hg15 mi
5:00 PM72 °FBroken clouds.17 mph73%29.89 "Hg15 mi
4:00 PM75 °FBroken clouds.17 mph65%29.88 "Hg15 mi
3:00 PM77 °FBroken clouds.16 mph61%29.91 "Hg15 mi
2:00 PM77 °FBroken clouds.17 mph65%29.91 "Hg15 mi
1:00 PM75 °FMore clouds than sun.15 mph69%29.90 "Hg15 mi
Weather by CustomWeather, © 2016

See weather overviewHow to use our weather pages